Weather in Marmyzhi

Russia / Kursk Oblast     51°49′23″N   37°36′05″E
temp.,
°C
wind,
m/s
gust,
m/s
humid.,
%
clouds,
%
prec.,
mm/h
press.,
hPa
HPBL,
m
23 october, sat
sat2300:00+8wsw48661 0.0 1011162
03:00+6sw4127211 0.0 1012272
06:00+6sw411695 0.0 1012222
09:00+9sw412575 0.0 1012445
12:00+10sw51158100 0.0 1012737
15:00+13w710365 0.0 10111975
18:00+8w5106172 0.0 1013584
21:00+6w511685 0.0 1015531
24 october, sun
sun2400:00+4w511795 0.0 1017444
03:00+3wsw488095 0.0 1017205
06:00+2wsw512795 0.0 1018314
09:00+5wsw51165100 0.0 1018380
12:00+7w796182 0.0 10191205
15:00+7wnw6958100 0.1 10191566
18:00+5nw61069100 0.1 10211020
21:00+4nw6107185 0.1 1023875
25 october, mon
mon2500:00+1nnw611795 0.0 1025529
03:000nnw511835 0.0 1026431
06:00−2nnw410905 0.0 1029321
09:000nnw47795 0.0 1031308
12:00+4nnw45493 0.0 1032895
15:00+5nnw34425 0.0 10311025
18:00+2nw22535 0.0 103212
21:00+1w22585 0.0 103311
26 october, tue
tue2600:000wsw33630 0.0 103337
03:00−1wsw35705 0.0 103382
06:00−1sw3674100 0.0 1033112
09:00+1sw486385 0.0 1032236
12:00+6sw574238 0.0 1031583
15:00+8sw673536 0.0 1029809
18:00+4sw494631 0.0 1029157
21:00+2sw4104944 0.0 1029193
27 october, wed
wed2700:00+1sw411475 0.0 1028199
03:00+1sw4114712 0.0 1028201
06:000sw411485 0.0 1027196
09:00+2sw512415 0.0 1026321
12:00+8sw710310 0.0 1024653
15:00+9wsw610300 0.0 1022977
18:00+6sw41143100 0.0 1022260
21:00+5wsw51257100 0.0 1021389